Location: Bakov nad Jizerou
(50.4784°N, 14.9394°E)
Time: 18:07:21
(UTC+00:00)

Cosmos 389 Rocket - Visible Passes

Search period start: 21 October 2021 00:00
Search period end: 31 October 2021 00:00
Orbit: 438 x 470 km, 81.1° (Epoch: 21 October)

Date Brightness Start Highest point End Pass type
(mag) Time Alt. Az. Time Alt. Az. Time Alt. Az.
21 Oct 5.1 02:26:47 19° E 02:26:47 19° E 02:28:53 10° ESE visible
21 Oct 3.1 04:00:47 32° W 04:00:53 32° W 04:04:05 10° SSW visible
21 Oct 5.3 17:42:21 10° WSW 17:44:54 19° WNW 17:47:29 10° NNW visible
22 Oct 5.1 03:30:12 11° S 03:30:12 11° S 03:30:20 10° S visible
22 Oct 4.1 17:07:25 10° SW 17:10:35 35° WNW 17:13:47 10° N visible
23 Oct 2.7 16:32:57 10° SSW 16:36:21 73° WNW 16:39:48 10° N visible
24 Oct 5.6 17:35:27 10° W 17:37:10 13° WNW 17:38:54 10° NNW visible
25 Oct 5.0 16:59:57 10° WSW 17:02:45 23° WNW 17:05:35 10° NNW visible
26 Oct 3.7 16:25:10 10° SSW 16:28:25 43° WNW 16:31:46 10° N visible
28 Oct 5.4 16:52:46 10° WSW 16:54:55 16° WNW 16:57:06 10° NNW visible
29 Oct 4.6 16:17:31 10° SW 16:20:30 27° WNW 16:23:33 10° N visible
